Temp
-10 -10 -10 -10 -10 -10 -10 -11 -10 -10 -11 -11 -11 -11 -11 -11 -11 -11 -11 -11 -11 -11 -11 -11 -11 -11 -10 -10 -10 -11 -10 -11 -11 -11 -12 -11 -10 -10 -10 -10 -10 -10 -10 -10 -10
-11 -11 -11 -11 -11 -11 -12 -11 -11 -11 -11 -11 -11 -12 -11 -11 -11 -11 -11 -11 -11 -11 -11 -11 -11 -11 -11 -11 -11 -11 -11 -11 -11 -11 -10 -11 -11 -11 -10 -10 -10 -10 -10 -10 -10
-12 -12 -12 -12 -12 -12 -12 -12 -12 -12 -12 -11 -12 -12 -12 -12 -11 -12 -11 -11 -11 -11 -11 -11 -11 -11 -11 -11 -11 -11 -11 -11 -11 -11 -11 -11 -11 -11 -11 -10 -11 -10 -10 -10 -10
-12 -13 -13 -13 -13 -13 -13 -13 -12 -12 -12 -13 -12 -12 -12 -12 -12 -12 -12 -12 -12 -12 -11 -11 -12 -11 -11 -11 -11 -11 -11 -11 -11 -11 -11 -11 -11 -11 -11 -11 -11 -11 -11 -10 -10
-13 -13 -13 -13 -13 -13 -13 -13 -13 -12 -12 -13 -13 -13 -13 -12 -12 -12 -12 -12 -12 -12 -12 -12 -11 -11 -11 -11 -11 -11 -11 -11 -11 -11 -11 -11 -11 -11 -11 -11 -11 -11 -11 -11 -11
-14 -13 -13 -13 -13 -13 -13 -13 -13 -13 -13 -13 -13 -13 -13 -13 -12 -13 -12 -12 -13 -12 -12 -12 -12 -12 -12 -11 -11 -11 -11 -11 -11 -11 -11 -11 -11 -11 -11 -11 -11 -12 -12 -11 -11
-14 -13 -14 -13 -14 -14 -14 -13 -13 -13 -13 -13 -13 -13 -13 -13 -13 -13 -13 -12 -12 -12 -12 -12 -12 -12 -12 -12 -12 -12 -12 -12 -12 -11 -11 -11 -11 -12 -11 -11 -11 -12 -11 -12 -12
-14 -14 -14 -14 -14 -14 -14 -14 -14 -13 -13 -13 -13 -13 -13 -13 -13 -13 -13 -13 -12 -12 -12 -12 -12 -12 -12 -12 -12 -12 -12 -12 -11 -11 -11 -11 -11 -13 -13 -12 -12 -12 -12 -12 -12
-14 -14 -14 -14 -15 -15 -15 -15 -14 -14 -14 -13 -13 -13 -12 -13 -13 -13 -13 -13 -13 -13 -12 -12 -12 -12 -12 -12 -12 -12 -12 -12 -12 -12 -11 -11 -11 -12 -13 -13 -13 -12 -10 -10 -12
-14 -14 -15 -15 -15 -15 -15 -15 -15 -14 -14 -14 -13 -13 -13 -13 -13 -13 -13 -13 -13 -13 -13 -12 -13 -13 -12 -12 -12 -12 -12 -12 -12 -12 -11 -11 -12 -13 -14 -13 -12 -11 -11 -12 -12
-15 -15 -15 -15 -15 -15 -15 -15 -14 -14 -14 -15 -13 -14 -13 -13 -13 -13 -13 -13 -13 -13 -13 -12 -13 -12 -12 -12 -12 -12 -12 -12 -12 -12 -11 -12 -13 -14 -14 -13 -12 -12 -13 -13 -13
-15 -15 -15 -15 -15 -15 -15 -15 -14 -14 -14 -15 -14 -14 -14 -13 -13 -13 -13 -13 -13 -13 -13 -13 -13 -12 -13 -13 -13 -12 -12 -12 -12 -12 -12 -13 -14 -15 -15 -14 -13 -13 -14 -14 -13
-15 -15 -16 -15 -15 -15 -15 -15 -15 -15 -15 -14 -15 -14 -14 -14 -14 -14 -14 -14 -13 -14 -14 -13 -13 -12 -13 -13 -13 -13 -13 -12 -13 -13 -13 -13 -14 -16 -17 -14 -13 -14 -15 -14 -14
-15 -15 -15 -16 -15 -15 -16 -16 -16 -16 -17 -15 -15 -14 -14 -14 -14 -14 -14 -14 -14 -14 -14 -14 -14 -14 -14 -14 -13 -13 -13 -14 -14 -14 -14 -15 -14 -16 -18 -15 -15 -17 -17 -17 -18
-16 -15 -15 -17 -17 -16 -16 -17 -17 -17 -19 -16 -15 -15 -15 -14 -15 -15 -15 -15 -15 -14 -14 -14 -14 -14 -14 -14 -14 -14 -14 -15 -15 -15 -15 -15 -15 -17 -14 -15 -17 -18 -19 -19 -19
-18 -17 -16 -18 -20 -17 -16 -18 -18 -19 -19 -17 -16 -16 -16 -15 -16 -15 -16 -15 -15 -15 -14 -15 -14 -15 -14 -14 -14 -14 -15 -16 -16 -16 -16 -17 -18 -18 -15 -17 -19 -19 -19 -18 -19
-20 -19 -19 -21 -21 -20 -19 -19 -20 -19 -18 -18 -16 -17 -16 -16 -16 -16 -16 -16 -15 -15 -15 -15 -15 -14 -15 -15 -15 -15 -16 -16 -17 -18 -17 -19 -19 -18 -18 -18 -19 -19 -19 -18 -18
-21 -21 -20 -21 -22 -21 -20 -20 -20 -19 -19 -18 -17 -17 -17 -16 -16 -16 -17 -17 -16 -15 -16 -15 -15 -15 -15 -16 -16 -16 -17 -17 -17 -17 -17 -19 -19 -19 -19 -19 -20 -19 -19 -19 -18
-22 -21 -21 -21 -21 -22 -21 -21 -20 -19 -19 -19 -18 -17 -18 -17 -17 -17 -17 -17 -16 -16 -16 -16 -17 -15 -16 -16 -17 -17 -17 -17 -18 -18 -18 -20 -20 -20 -19 -20 -20 -19 -19 -19 -19
-21 -21 -21 -21 -22 -22 -22 -21 -21 -21 -20 -19 -19 -18 -18 -18 -16 -17 -17 -17 -16 -16 -17 -16 -18 -16 -16 -17 -18 -18 -18 -18 -19 -18 -18 -20 -20 -20 -20 -20 -20 -20 -19 -19 -19
-22 -22 -22 -22 -22 -23 -22 -21 -21 -21 -20 -20 -19 -19 -19 -19 -17 -18 -18 -17 -17 -17 -17 -17 -18 -17 -18 -18 -18 -18 -18 -19 -19 -20 -20 -19 -20 -20 -20 -20 -20 -20 -19 -19 -19
-21 -22 -22 -22 -22 -22 -22 -21 -21 -21 -21 -21 -20 -19 -19 -18 -18 -18 -18 -18 -17 -17 -17 -17 -18 -18 -19 -18 -19 -19 -19 -19 -20 -20 -20 -21 -20 -21 -21 -20 -20 -20 -19 -19 -19
-21 -21 -22 -22 -22 -22 -22 -22 -22 -22 -21 -21 -20 -20 -19 -18 -19 -18 -18 -18 -18 -18 -18 -19 -18 -19 -18 -18 -19 -19 -19 -20 -20 -20 -21 -21 -21 -21 -20 -21 -20 -20 -20 -20 -19
-21 -21 -22 -22 -22 -22 -22 -22 -22 -22 -21 -21 -20 -20 -20 -19 -19 -19 -19 -19 -19 -18 -19 -20 -20 -19 -19 -19 -19 -19 -19 -19 -20 -21 -21 -22 -21 -21 -21 -21 -21 -21 -20 -20 -20
-21 -20 -21 -21 -21 -21 -22 -22 -22 -22 -21 -21 -21 -21 -21 -20 -20 -20 -19 -19 -19 -19 -20 -20 -20 -20 -20 -20 -20 -20 -20 -20 -21 -23 -23 -22 -22 -22 -21 -21 -22 -21 -21 -21 -20
-20 -20 -21 -21 -21 -21 -21 -22 -22 -21 -21 -21 -21 -20 -20 -20 -20 -20 -20 -19 -20 -21 -20 -20 -20 -20 -20 -20 -20 -20 -21 -21 -22 -22 -22 -22 -22 -22 -22 -22 -22 -21 -21 -21 -21
-21 -21 -22 -21 -22 -22 -21 -21 -21 -21 -21 -21 -21 -20 -20 -20 -20 -20 -20 -21 -22 -21 -21 -21 -20 -20 -20 -20 -21 -21 -22 -22 -22 -22 -22 -22 -22 -22 -22 -22 -22 -22 -21 -21 -21
Height
5787 5788 5789 5790 5791 5792 5793 5793 5794 5794 5795 5797 5798 5800 5800 5802 5802 5803 5805 5806 5805 5805 5805 5806 5807 5807 5807 5809 5810 5810 5811 5813 5815 5814 5811 5813 5816 5818 5817 5817 5817 5818 5816 5819 5817
5780 5781 5780 5782 5784 5785 5786 5786 5787 5788 5789 5790 5791 5793 5795 5796 5796 5798 5797 5800 5800 5800 5800 5801 5802 5802 5803 5803 5804 5804 5805 5808 5807 5805 5808 5810 5810 5811 5809 5810 5811 5812 5809 5809 5813
5773 5773 5773 5774 5775 5778 5779 5779 5779 5781 5782 5783 5785 5785 5787 5789 5790 5794 5791 5793 5794 5794 5794 5795 5796 5796 5797 5797 5798 5798 5800 5800 5802 5800 5802 5804 5804 5802 5803 5803 5805 5804 5803 5803 5805
5764 5767 5766 5766 5767 5769 5771 5773 5773 5772 5775 5776 5778 5779 5780 5782 5783 5786 5786 5787 5788 5789 5789 5789 5790 5790 5791 5791 5791 5792 5794 5794 5795 5795 5795 5795 5796 5796 5797 5798 5796 5795 5795 5796 5795
5755 5757 5760 5761 5759 5761 5763 5765 5767 5767 5768 5770 5771 5772 5774 5776 5777 5779 5781 5781 5782 5783 5783 5784 5784 5784 5785 5785 5786 5785 5787 5788 5787 5788 5787 5787 5787 5788 5791 5788 5787 5788 5787 5786 5785
5747 5749 5751 5754 5754 5753 5755 5757 5760 5762 5763 5763 5765 5765 5767 5769 5773 5774 5775 5775 5776 5776 5777 5778 5778 5778 5779 5780 5780 5781 5781 5782 5781 5780 5778 5780 5779 5779 5777 5779 5780 5781 5779 5777 5776
5739 5742 5743 5744 5746 5747 5748 5750 5752 5757 5757 5757 5758 5760 5763 5764 5765 5768 5770 5770 5770 5770 5770 5771 5771 5772 5772 5773 5774 5773 5773 5773 5773 5770 5772 5770 5771 5770 5765 5766 5771 5772 5770 5769 5768
5729 5731 5734 5735 5736 5739 5742 5742 5744 5748 5749 5750 5753 5755 5756 5760 5760 5762 5764 5765 5765 5765 5764 5765 5766 5766 5767 5767 5767 5768 5767 5765 5764 5764 5761 5761 5761 5759 5756 5753 5753 5755 5759 5757 5755
5718 5723 5723 5727 5729 5730 5733 5734 5736 5738 5739 5744 5746 5749 5750 5756 5755 5756 5757 5759 5760 5760 5760 5759 5760 5760 5761 5760 5761 5759 5759 5757 5755 5752 5748 5749 5750 5747 5743 5746 5744 5739 5738 5741 5745
5710 5710 5715 5715 5719 5722 5724 5725 5727 5730 5732 5734 5738 5743 5743 5748 5748 5749 5750 5751 5753 5753 5753 5753 5753 5753 5753 5752 5753 5751 5749 5748 5747 5749 5746 5743 5740 5734 5730 5732 5732 5732 5731 5728 5726
5696 5699 5701 5705 5707 5710 5713 5715 5719 5722 5725 5728 5729 5732 5734 5739 5741 5742 5742 5745 5744 5746 5745 5746 5746 5745 5744 5744 5743 5743 5744 5742 5741 5740 5740 5737 5732 5725 5720 5722 5722 5720 5717 5717 5714
5683 5686 5688 5691 5693 5696 5698 5699 5705 5711 5714 5716 5719 5723 5726 5728 5732 5733 5736 5736 5736 5737 5737 5738 5737 5737 5738 5738 5737 5735 5734 5735 5734 5732 5730 5730 5726 5711 5709 5710 5708 5709 5708 5703 5700
5665 5671 5674 5676 5677 5682 5684 5686 5694 5697 5700 5706 5712 5713 5717 5718 5721 5722 5728 5728 5727 5728 5728 5728 5730 5729 5730 5730 5729 5727 5725 5723 5724 5723 5722 5719 5718 5698 5695 5700 5698 5696 5693 5688 5684
5645 5652 5657 5661 5661 5667 5672 5674 5682 5685 5683 5693 5700 5704 5705 5709 5710 5712 5716 5720 5720 5719 5719 5721 5720 5721 5721 5721 5721 5719 5714 5714 5712 5711 5713 5708 5711 5704 5685 5685 5690 5685 5680 5674 5670
5626 5632 5641 5644 5638 5650 5657 5661 5665 5672 5666 5679 5686 5693 5696 5702 5702 5705 5706 5710 5710 5710 5712 5711 5713 5713 5712 5713 5712 5710 5707 5704 5703 5702 5701 5700 5696 5688 5684 5678 5678 5674 5671 5666 5660
5607 5613 5621 5619 5619 5633 5643 5645 5651 5652 5648 5665 5675 5680 5687 5691 5692 5694 5698 5701 5702 5703 5702 5702 5703 5704 5704 5703 5702 5701 5699 5697 5694 5694 5692 5687 5685 5675 5676 5671 5668 5667 5663 5657 5651
5590 5597 5603 5602 5607 5617 5627 5631 5632 5628 5645 5653 5664 5669 5676 5680 5680 5684 5688 5691 5694 5694 5694 5694 5695 5696 5695 5694 5693 5692 5691 5689 5687 5683 5685 5679 5677 5668 5668 5666 5661 5658 5653 5647 5639
5576 5578 5586 5588 5594 5604 5610 5612 5606 5625 5635 5641 5651 5659 5664 5668 5672 5673 5676 5681 5684 5686 5683 5684 5686 5687 5686 5686 5684 5685 5685 5682 5679 5679 5678 5677 5668 5663 5661 5659 5656 5651 5644 5636 5628
5560 5561 5567 5573 5584 5592 5595 5592 5596 5615 5625 5633 5639 5646 5652 5656 5663 5664 5668 5671 5674 5674 5677 5676 5674 5675 5677 5677 5678 5677 5676 5675 5672 5671 5668 5666 5661 5659 5655 5653 5650 5645 5640 5633 5622
5544 5549 5554 5562 5573 5579 5578 5578 5589 5604 5614 5621 5626 5635 5641 5645 5650 5652 5658 5662 5662 5667 5667 5668 5667 5667 5668 5669 5670 5669 5669 5668 5666 5663 5660 5660 5654 5652 5651 5649 5646 5642 5636 5629 5618
5529 5533 5542 5551 5560 5562 5564 5574 5586 5594 5603 5610 5620 5623 5631 5634 5638 5643 5648 5651 5654 5656 5657 5659 5659 5660 5661 5662 5662 5662 5662 5662 5660 5658 5653 5652 5649 5646 5645 5643 5640 5636 5631 5625 5614
5514 5520 5530 5540 5545 5550 5559 5569 5576 5583 5593 5598 5604 5613 5620 5624 5626 5633 5637 5642 5645 5646 5648 5650 5651 5652 5655 5655 5656 5655 5653 5653 5651 5652 5647 5645 5641 5638 5639 5636 5633 5629 5625 5620 5610
5500 5508 5520 5531 5534 5544 5554 5561 5567 5575 5583 5591 5599 5607 5610 5612 5618 5624 5628 5632 5637 5637 5638 5642 5643 5646 5647 5650 5650 5649 5648 5647 5644 5641 5640 5637 5635 5634 5632 5631 5627 5625 5621 5616 5609
5498 5503 5511 5521 5529 5539 5547 5555 5563 5570 5577 5584 5590 5596 5600 5604 5611 5614 5618 5625 5626 5629 5632 5636 5638 5640 5642 5643 5643 5642 5639 5636 5635 5631 5630 5629 5629 5627 5627 5625 5622 5620 5617 5611 5606
5497 5501 5513 5516 5525 5535 5542 5550 5554 5562 5570 5577 5584 5587 5593 5597 5602 5606 5612 5616 5619 5622 5625 5630 5633 5635 5636 5637 5637 5636 5634 5630 5625 5623 5623 5623 5623 5622 5622 5621 5619 5616 5613 5608 5603
5496 5500 5509 5518 5525 5532 5539 5545 5553 5557 5564 5572 5578 5582 5586 5590 5595 5600 5605 5609 5613 5617 5621 5625 5628 5630 5632 5631 5631 5630 5627 5624 5623 5622 5620 5618 5618 5618 5617 5616 5614 5611 5608 5605 5600
5494 5501 5509 5515 5521 5527 5534 5543 5548 5553 5559 5566 5570 5575 5578 5584 5588 5592 5597 5600 5606 5612 5617 5620 5623 5625 5625 5626 5625 5625 5622 5621 5621 5619 5617 5615 5614 5613 5612 5611 5609 5606 5604 5601 5598
Wind_Speed
42 41 40 41 42 42 42 42 39 39 37 35 33 33 31 29 28 25 27 28 30 30 31 31 30 28 28 27 25 26 27 22 21 23 31 33 32 28 32 34 34 34 36 34 37
41 41 39 40 41 40 38 38 37 37 36 34 32 31 32 32 32 27 29 27 28 31 31 32 32 31 29 28 28 29 29 24 27 34 32 28 30 28 33 34 34 33 38 40 36
42 39 39 37 35 36 35 34 33 34 34 34 33 32 33 34 34 23 27 26 24 26 29 32 33 31 30 32 30 32 31 31 32 36 35 33 32 36 35 38 36 39 40 41 39
41 40 39 36 35 33 32 32 32 32 33 33 34 33 32 31 36 26 26 26 26 25 25 27 30 31 31 32 32 32 32 34 35 37 38 40 40 40 40 39 41 43 43 42 41
37 37 38 38 32 30 29 29 31 31 32 33 36 35 32 30 30 30 27 28 28 27 26 25 25 27 30 31 31 32 31 33 35 36 39 40 40 40 35 40 43 41 42 42 44
37 36 40 41 36 31 31 29 28 28 30 24 22 27 34 34 26 30 30 28 28 26 25 26 26 25 26 28 30 30 30 30 32 34 37 38 41 41 43 44 42 38 40 43 44
40 38 41 39 38 36 33 33 30 31 28 26 24 21 22 25 23 21 24 22 23 23 23 24 26 27 26 28 29 30 31 31 31 35 33 35 36 37 45 47 44 42 44 44 45
46 46 50 54 38 40 39 36 33 33 33 30 28 28 27 26 26 25 25 25 25 23 22 22 24 25 27 27 25 27 31 31 33 32 36 36 36 38 40 45 46 45 41 44 50
51 52 53 51 54 36 41 38 37 36 34 33 31 30 30 24 27 27 26 26 25 24 23 23 25 28 27 29 29 31 33 37 39 42 46 46 44 44 46 44 47 53 58 57 51
61 57 57 54 52 46 50 50 43 42 39 38 36 35 34 28 29 30 29 29 29 27 26 26 27 29 33 37 32 35 40 43 45 46 48 51 51 51 52 53 56 57 57 58 57
64 61 60 59 57 55 58 53 52 49 44 42 42 40 41 38 35 36 33 34 33 32 31 30 31 34 38 39 40 40 39 41 44 48 49 50 51 51 55 56 58 60 59 57 60
68 64 63 63 62 60 60 60 59 53 52 44 47 45 46 44 44 42 41 40 38 36 36 35 34 35 38 40 42 43 42 44 46 46 48 46 44 49 50 55 60 58 55 58 62
72 70 67 69 69 67 66 66 64 59 57 57 50 50 48 49 47 45 44 44 43 39 38 39 37 39 39 39 40 41 43 45 44 43 44 45 43 46 46 55 57 54 56 61 64
76 73 72 72 75 71 69 68 65 61 58 52 56 52 51 46 45 47 45 41 39 37 38 39 40 39 41 41 41 43 46 44 43 43 40 40 39 38 43 56 52 48 49 53 55
75 74 74 70 73 73 71 65 63 60 54 59 60 56 53 55 57 49 41 37 37 37 35 38 40 41 41 44 46 44 43 41 38 37 36 37 41 37 49 49 43 40 39 42 47
70 75 74 68 66 71 70 65 62 60 62 64 61 51 52 41 40 44 39 38 38 37 39 38 42 40 42 44 42 40 39 34 33 34 34 30 29 35 43 41 37 41 39 43 52
63 66 57 55 54 58 62 61 58 64 61 59 60 52 53 56 48 50 38 38 40 38 37 38 40 42 43 41 39 36 33 31 29 25 25 22 23 39 41 43 44 37 41 49 46
59 57 55 49 47 52 58 63 63 61 57 57 57 63 58 53 53 54 44 45 44 43 43 45 47 44 41 36 36 32 28 28 30 28 28 25 37 44 41 32 33 33 42 46 40
57 59 57 53 48 48 56 64 66 57 56 53 54 52 46 57 61 54 49 39 41 41 37 40 41 41 35 34 29 29 26 27 28 29 30 21 28 28 30 30 31 30 36 44 37
58 59 60 55 50 49 57 65 60 58 54 55 55 54 51 53 53 49 45 42 42 31 29 32 32 34 32 30 27 27 27 25 26 29 30 27 28 30 31 33 30 29 35 38 37
55 58 56 53 52 54 59 57 56 57 56 59 49 46 55 51 43 40 42 39 34 30 31 29 29 33 28 26 25 26 26 25 27 28 32 31 32 34 28 29 29 26 31 36 35
54 59 55 52 56 55 54 50 54 53 55 55 60 46 49 49 40 39 40 39 36 35 33 32 27 30 25 25 22 24 27 29 32 31 31 32 36 33 28 28 28 29 29 31 34
47 53 53 50 53 49 52 50 50 48 49 52 58 51 46 46 38 42 42 37 35 34 32 28 29 26 24 23 23 24 26 28 31 33 29 31 34 33 29 31 32 27 25 25 27
36 45 47 48 48 47 46 45 42 42 43 54 51 38 33 30 35 34 29 29 30 31 25 26 24 21 23 22 23 23 26 31 33 38 36 30 29 24 24 27 29 27 23 22 24
35 37 35 36 41 39 41 41 44 42 47 44 43 39 40 37 37 40 41 35 35 31 24 22 21 22 21 20 17 21 26 29 29 24 24 27 28 28 26 27 24 22 22 21 23
35 33 33 30 30 31 36 37 40 41 40 39 33 39 37 35 39 41 38 35 27 23 23 23 23 20 18 17 17 18 19 11 10 15 20 23 24 25 27 25 24 23 23 21 20
28 18 29 25 24 29 31 32 37 35 38 38 38 37 39 41 32 37 36 32 28 27 26 23 20 18 16 14 14 12 13 14 16 19 16 14 21 27 25 25 25 22 22 21 18
Wind_Direction
264 267 270 271 271 272 274 277 276 278 279 279 277 273 269 262 265 269 279 274 266 264 262 262 260 259 259 260 260 259 261 263 263 258 245 255 265 265 263 264 263 264 267 262 264
266 266 269 273 275 274 275 274 274 275 276 272 266 262 260 260 262 270 271 272 268 263 261 261 259 259 257 256 257 259 260 261 257 257 262 268 271 265 264 264 265 265 264 264 264
267 268 270 270 271 272 270 266 266 267 268 265 260 256 258 260 264 266 267 266 267 266 263 262 261 262 262 261 260 260 261 262 261 264 265 261 265 265 263 263 265 263 264 266 264
264 269 268 268 267 268 268 267 263 259 259 262 262 260 259 262 263 258 261 263 267 266 267 264 265 264 264 264 265 266 268 267 268 268 271 271 266 268 269 272 267 265 265 266 266
258 262 268 268 261 261 263 264 263 261 259 261 263 260 257 259 259 260 260 260 261 265 268 266 265 265 265 266 266 268 268 269 272 274 273 272 275 274 277 270 266 267 268 268 265
252 257 265 263 259 254 256 256 258 262 258 262 271 263 257 257 262 261 262 263 261 262 267 273 274 269 265 267 268 271 271 272 275 274 272 276 274 277 274 270 269 267 268 267 266
257 257 255 262 253 257 254 254 256 258 257 263 262 266 264 261 262 262 262 264 266 267 271 277 278 280 278 276 277 278 279 279 278 281 289 286 283 277 275 272 268 268 266 263 264
255 255 254 245 266 260 254 253 252 255 256 257 259 259 262 262 262 262 263 270 267 270 275 276 275 276 277 272 274 281 284 286 289 293 293 293 290 282 282 282 283 278 268 264 262
253 256 257 263 264 255 253 254 250 253 251 256 257 259 260 258 261 267 265 267 268 274 272 273 271 274 266 271 280 285 288 295 300 302 300 297 294 290 285 283 282 280 281 280 276
256 254 258 258 259 261 261 262 253 253 253 253 254 257 260 259 264 268 272 275 275 276 276 276 273 271 271 277 285 293 297 299 296 294 291 292 292 291 289 285 281 280 279 280 280
257 255 254 258 257 255 257 259 258 256 253 257 253 256 260 263 263 265 268 272 274 276 277 279 281 280 279 285 284 287 289 288 290 287 288 289 288 287 285 282 281 282 282 284 282
258 257 256 254 254 255 257 259 259 258 255 258 255 257 258 261 266 268 272 271 269 274 275 277 278 282 282 278 280 283 283 283 280 282 284 285 285 283 283 284 284 285 287 284 283
256 256 255 255 253 252 253 254 258 258 260 259 259 260 264 268 266 268 274 271 268 269 275 275 281 285 276 275 277 280 284 282 283 283 285 285 287 288 287 284 290 292 289 286 284
256 255 254 254 253 253 254 255 256 257 260 260 260 259 261 262 263 274 278 266 264 271 274 273 280 279 274 278 279 282 283 285 284 285 285 284 284 282 276 290 290 286 286 284 284
250 250 253 253 252 250 252 252 252 253 250 250 254 254 257 261 265 267 263 261 268 272 277 278 277 273 276 279 283 285 285 284 284 285 286 286 287 281 285 290 292 292 281 284 287
251 249 248 248 248 249 249 250 250 246 244 250 254 257 259 254 257 257 254 262 270 277 277 275 276 275 278 283 280 280 281 282 283 283 288 294 297 278 292 290 294 297 291 289 297
253 252 248 244 243 243 245 245 241 242 248 248 250 251 253 255 258 247 252 269 272 271 273 276 277 275 281 281 280 277 277 278 285 289 295 291 281 274 280 283 292 302 304 298 304
251 251 249 244 240 238 238 237 238 243 241 246 245 248 252 248 246 251 269 271 270 268 275 278 276 276 279 279 274 274 271 273 278 281 287 267 260 273 280 283 294 306 312 324 308
248 247 245 242 239 236 234 235 237 237 234 237 236 244 243 252 250 255 271 259 259 267 273 274 272 273 276 272 268 270 273 278 282 287 292 296 283 284 281 293 295 306 312 319 324
245 245 244 243 238 232 233 235 232 237 231 233 234 242 245 249 258 252 253 254 257 255 264 279 267 274 267 264 262 265 274 277 283 291 291 287 279 272 279 286 287 305 313 320 332
240 239 239 237 232 230 232 234 235 236 231 234 232 233 238 251 249 240 245 248 248 246 273 277 272 270 262 256 258 265 266 276 282 286 287 289 273 275 279 285 287 300 312 325 338
237 234 234 230 230 228 231 231 233 231 232 236 235 242 245 244 227 234 246 251 245 261 266 267 264 260 247 252 259 270 283 291 290 287 283 277 269 282 286 282 294 299 318 325 340
222 222 223 226 227 228 230 232 234 232 231 231 234 235 241 236 228 237 246 242 253 254 254 250 249 242 248 258 267 277 285 283 288 287 280 268 270 278 284 285 291 304 315 324 337
208 212 213 216 220 224 229 231 234 228 231 228 229 236 242 236 233 237 245 253 253 252 245 235 235 235 247 263 278 290 296 297 294 281 275 260 258 274 282 290 294 302 315 319 327
207 212 219 219 221 226 227 227 229 224 227 227 245 248 252 246 259 261 258 255 250 240 223 220 227 235 249 266 282 291 296 295 286 283 268 256 260 274 275 286 291 302 308 307 321
208 208 208 217 230 230 224 225 229 232 232 244 240 245 243 261 258 254 247 242 238 220 210 216 226 238 251 267 284 302 300 298 291 280 275 265 271 273 274 287 291 296 305 308 315
220 207 210 204 223 229 225 227 236 235 238 247 235 245 255 253 245 237 232 218 208 205 209 216 229 237 254 272 288 298 286 282 265 279 274 293 278 281 287 290 295 301 298 304 313